Date String (YYYY-MM-DD hh:mm:ss) UTC,Instrument flags,absolute air pressure of the measurement (hPa),sample flow rate (lpm),inlet stack bypass flow (lpm),air temperature of the measurement (°C),ambient temperature measured by the external sensor (°C),aerosol sample conditioner tube jacket temperature (°C),OPC LED temperature (°C),internal box temperature (°C),relative humidity of the measurement (%),span deviation,mass concentration of particles derived from Lorenz-Mie calculation of OPC scattering (μg/m³),mass concentration of particles derived from Lorenz-Mie calculation of OPC scattering (μg/m³),mass concentration of particles derived from Lorenz-Mie calculation of OPC scattering (μg/m³)
DateTimeUTC,F1_M11,P_M11,Q1_M11,Q2_M11,T1_M11,T2_M11,T3_M11,T4_M11,T5_M11,U1_M11,ZSPAN_M11,X0_M11,X2_M11,X1_M11
2024-03-28 06:00:00,SystemResetWarning,0827.2,5.00,000.00,018.2,017.4,000.0,026.9,020.0,12.9,0000.0,0002.87,0001.89,0001.38
2024-03-28 06:01:00,SystemResetWarning,0827.1,5.00,000.00,018.2,017.4,000.0,026.9,020.0,12.8,0000.0,0002.97,0001.91,0001.39
2024-03-28 06:02:00,SystemResetWarning,0827.2,4.99,000.00,018.2,017.4,000.0,026.9,020.0,12.7,0000.0,0002.86,0001.88,0001.38
2024-03-28 06:03:00,SystemResetWarning,0827.2,5.00,000.00,018.2,017.4,000.0,026.9,020.0,12.8,0000.0,0002.67,0001.80,0001.37
2024-03-28 06:04:00,SystemResetWarning,0827.2,5.00,000.00,018.2,017.4,000.0,026.9,020.0,12.8,0000.0,0002.70,0001.81,0001.37
2024-03-28 06:05:00,SystemResetWarning,0827.2,4.99,000.00,018.2,017.4,000.0,026.9,020.0,12.7,0000.0,0002.86,0001.87,0001.38
2024-03-28 06:06:00,SystemResetWarning,0827.1,5.00,000.00,018.2,017.4,000.0,026.9,020.0,12.7,0000.0,0003.16,0001.88,0001.38
2024-03-28 06:07:00,SystemResetWarning,0827.1,5.01,000.00,018.2,017.4,000.0,026.9,020.0,12.5,0000.0,0003.33,0001.88,0001.37
2024-03-28 06:08:00,SystemResetWarning,0827.1,5.01,000.00,018.2,017.4,000.0,026.9,020.0,12.5,0000.0,0003.15,0001.79,0001.35
2024-03-28 06:09:00,SystemResetWarning,0827.1,4.99,000.00,018.2,017.4,000.0,026.9,020.0,12.5,0000.0,0003.15,0001.79,0001.34
2024-03-28 06:10:00,SystemResetWarning,0827.1,4.99,000.00,018.2,017.4,000.0,026.9,020.0,12.5,0000.0,0003.10,0001.78,0001.35
2024-03-28 06:11:00,SystemResetWarning,0827.1,5.00,000.00,018.2,017.3,000.0,026.9,020.0,12.7,0000.0,0003.17,0001.84,0001.35
2024-03-28 06:12:00,SystemResetWarning,0827.1,5.00,000.00,018.2,017.4,000.0,026.9,020.0,12.6,0000.0,0003.12,0001.83,0001.34
2024-03-28 06:13:00,SystemResetWarning,0827.1,4.99,000.00,018.2,017.3,000.0,026.9,020.0,12.5,0000.0,0003.10,0001.80,0001.34
2024-03-28 06:14:00,SystemResetWarning,0827.1,5.00,000.00,018.2,017.3,000.0,026.9,020.0,12.5,0000.0,0004.00,0001.82,0001.35
2024-03-28 06:15:00,SystemResetWarning,0827.1,5.00,000.00,018.2,017.3,000.0,026.9,020.0,12.7,0000.0,0004.23,0001.87,0001.35
2024-03-28 06:16:00,SystemResetWarning,0827.1,5.00,000.00,018.2,017.3,000.0,026.9,020.0,12.7,0000.0,0004.06,0001.81,0001.34
2024-03-28 06:17:00,SystemResetWarning,0827.1,5.01,000.00,018.2,017.3,000.0,026.9,020.0,12.5,0000.0,0003.76,0001.77,0001.34
2024-03-28 06:18:00,SystemResetWarning,0827.1,5.00,000.00,018.2,017.3,000.0,026.9,020.0,12.3,0000.0,0003.71,0001.81,0001.34
2024-03-28 06:19:00,SystemResetWarning,0827.1,5.00,000.00,018.2,017.3,000.0,026.9,020.0,12.5,0000.0,0003.76,0001.85,0001.34
2024-03-28 06:20:00,SystemResetWarning,0827.1,5.00,000.00,018.2,017.3,000.0,026.9,020.0,12.7,0000.0,0003.78,0001.85,0001.33
2024-03-28 06:21:00,SystemResetWarning,0827.1,5.01,000.00,018.2,017.3,000.0,026.9,020.0,12.4,0000.0,0003.77,0001.83,0001.32
2024-03-28 06:22:00,SystemResetWarning,0827.1,5.00,000.00,018.2,017.2,000.0,026.9,020.0,12.6,0000.0,0003.70,0001.76,0001.32
2024-03-28 06:23:00,SystemResetWarning,0827.1,4.99,000.00,018.2,017.2,000.0,026.9,020.0,12.5,0000.0,0003.63,0001.75,0001.34
2024-03-28 06:24:00,SystemResetWarning,0827.1,5.00,000.00,018.2,017.2,000.0,026.9,020.0,12.5,0000.0,0003.62,0001.77,0001.34
2024-03-28 06:25:00,SystemResetWarning,0827.0,4.98,000.00,018.2,017.2,000.0,026.9,020.0,12.7,0000.0,0003.04,0001.79,0001.34
2024-03-28 06:26:00,SystemResetWarning,0827.1,4.99,000.00,018.2,017.4,000.0,027.0,020.1,12.5,0000.0,0002.65,0001.75,0001.33
2024-03-28 06:27:00,SystemResetWarning,0827.1,5.01,000.00,018.4,018.3,000.0,027.1,020.6,12.6,0000.0,0002.57,0001.71,0001.32
2024-03-28 06:28:00,SystemResetWarning,0827.1,5.00,000.00,018.7,019.2,000.0,027.1,021.1,12.1,0000.0,0002.56,0001.71,0001.31
2024-03-28 06:29:00,SystemResetWarning,0827.1,4.98,000.00,018.8,019.1,000.0,027.1,021.0,11.9,0000.0,0002.43,0001.68,0001.31
2024-03-28 06:30:00,SystemResetWarning,0827.1,5.01,000.00,018.8,018.9,000.0,027.1,020.8,12.0,0000.0,0002.56,0001.68,0001.30
2024-03-28 06:31:00,SystemResetWarning,0827.1,5.01,000.00,018.8,018.7,000.0,027.1,020.7,12.0,0000.0,0002.48,0001.65,0001.29
2024-03-28 06:32:00,SystemResetWarning,0827.1,5.00,000.00,018.8,018.5,000.0,027.0,020.5,12.0,0000.0,0002.53,0001.68,0001.28
2024-03-28 06:33:00,SystemResetWarning,0827.1,4.99,000.00,018.7,018.3,000.0,027.0,020.4,12.0,0000.0,0002.60,0001.74,0001.27
2024-03-28 06:34:00,SystemResetWarning,0827.1,4.99,000.00,018.7,018.2,000.0,027.0,020.4,12.1,0000.0,0002.67,0001.77,0001.25
2024-03-28 06:35:00,SystemResetWarning,0827.1,5.00,000.00,018.7,018.1,000.0,027.0,020.3,12.3,0000.0,0002.64,0001.76,0001.25
2024-03-28 06:36:00,SystemResetWarning,0827.1,5.00,000.00,018.6,017.9,000.0,027.0,020.2,12.4,0000.0,0002.60,0001.76,0001.25
2024-03-28 06:37:00,SystemResetWarning,0827.1,5.00,000.00,018.6,017.8,000.0,027.0,020.2,12.2,0000.0,0002.73,0001.83,0001.25
2024-03-28 06:38:00,SystemResetWarning,0827.1,4.99,000.00,018.5,017.7,000.0,027.0,020.1,12.1,0000.0,0003.04,0001.90,0001.26
2024-03-28 06:39:00,SystemResetWarning,0827.1,5.00,000.00,018.5,017.7,000.0,027.0,020.1,12.1,0000.0,0003.15,0001.94,0001.27
2024-03-28 06:40:00,SystemResetWarning,0827.1,5.00,000.00,018.5,017.6,000.0,027.0,020.1,12.3,0000.0,0003.22,0001.97,0001.27
2024-03-28 06:41:00,SystemResetWarning,0827.0,5.00,000.00,018.4,017.5,000.0,027.0,020.0,12.5,0000.0,0003.12,0001.98,0001.28
2024-03-28 06:42:00,SystemResetWarning,0827.1,5.01,000.00,018.4,017.5,000.0,027.0,020.0,12.5,0000.0,0003.17,0002.02,0001.30
2024-03-28 06:43:00,SystemResetWarning,0827.1,5.00,000.00,018.4,017.4,000.0,027.0,020.0,12.2,0000.0,0003.20,0002.02,0001.31
2024-03-28 06:44:00,SystemResetWarning,0827.1,5.00,000.00,018.4,017.4,000.0,027.0,020.0,12.2,0000.0,0003.21,0002.01,0001.32
2024-03-28 06:45:00,SystemResetWarning,0827.0,5.00,000.00,018.3,017.4,000.0,027.0,020.0,12.3,0000.0,0003.21,0002.01,0001.32
2024-03-28 06:46:00,SystemResetWarning,0827.0,5.01,000.00,018.3,017.4,000.0,027.0,020.0,12.4,0000.0,0003.08,0001.96,0001.32
2024-03-28 06:47:00,SystemResetWarning,0827.1,5.00,000.00,018.3,017.4,000.0,027.0,020.0,12.3,0000.0,0003.02,0001.94,0001.31
2024-03-28 06:48:00,SystemResetWarning,0827.0,5.00,000.00,018.3,017.4,000.0,027.0,020.0,12.3,0000.0,0002.98,0001.90,0001.30
2024-03-28 06:49:00,SystemResetWarning,0827.0,5.00,000.00,018.3,017.4,000.0,027.0,020.0,12.5,0000.0,0002.74,0001.84,0001.30
2024-03-28 06:50:00,SystemResetWarning,0827.0,5.00,000.00,018.3,017.4,000.0,027.0,020.0,12.6,0000.0,0002.72,0001.81,0001.28
2024-03-28 06:51:00,SystemResetWarning,0827.0,5.00,000.00,018.3,017.4,000.0,027.0,020.0,12.6,0000.0,0002.68,0001.77,0001.28
2024-03-28 06:52:00,SystemResetWarning,0826.9,5.00,000.00,018.3,017.5,000.0,026.9,020.0,12.5,0000.0,0002.67,0001.75,0001.28
2024-03-28 06:53:00,SystemResetWarning,0826.9,5.00,000.00,018.3,017.5,000.0,026.9,020.0,12.5,0000.0,0002.65,0001.73,0001.28
2024-03-28 06:54:00,SystemResetWarning,0826.9,5.00,000.00,018.3,017.5,000.0,026.9,020.0,12.5,0000.0,0002.60,0001.70,0001.27
2024-03-28 06:55:00,SystemResetWarning,0826.9,5.01,000.00,018.3,017.5,000.0,026.9,020.0,12.6,0000.0,0003.05,0001.70,0001.27
2024-03-28 06:56:00,SystemResetWarning,0826.9,5.00,000.00,018.3,017.5,000.0,026.9,020.0,12.7,0000.0,0003.07,0001.63,0001.26
2024-03-28 06:57:00,SystemResetWarning,0826.9,5.01,000.00,018.3,017.5,000.0,026.9,020.0,12.6,0000.0,0003.11,0001.63,0001.25
2024-03-28 06:58:00,SystemResetWarning,0826.9,5.01,000.00,018.3,017.5,000.0,026.9,020.0,12.7,0000.0,0003.13,0001.62,0001.24
2024-03-28 06:59:00,SystemResetWarning,0827.0,4.99,000.00,018.3,017.5,000.0,026.9,020.0,12.8,0000.0,0003.06,0001.61,0001.23
